IZ2XCK-13 Weather Reports


Display with metric or nautical units.
time (UTC)temp
F
wind
direction
speed
MPH
gust
MPH
rain 1hr
in
rain 24hr
in
rain mn
in
humidity
%
barometer
mb
20260506024538 53 0.0 0.0 0.00 0.00 0.00 99 1012.5
20260506022537 54 0.0 0.0 0.00 0.00 0.00 95 1012.7
20260506020537 54 0.0 0.0 0.00 0.00 0.00 99 1012.7
20260506014537 54 0.0 0.0 0.00 0.00 0.00 99 1012.4
20260506012537 54 0.0 0.0 0.00 0.00 0.00 99 1012.5
20260506010536 53 0.0 0.0 0.00 0.00 0.00 99 1012.9
20260506004536 54 0.0 0.0 0.00 0.00 0.00 99 1012.9
20260506002536 53 0.0 0.0 0.00 0.00 0.00 99 1013.2
20260506000535 53 0.0 0.0 0.00 0.00 0.00 99 1013.3
20260505234535 55 0.0 0.0 0.00 0.00 0.00 94 1013.4
20260505232535 54 0.0 0.0 0.00 0.00 0.00 95 1013.6
20260505230534 54 0.0 0.0 0.00 0.00 0.00 99 1013.6
20260505224534 53 0.0 0.0 0.00 0.00 0.00 99 1013.4
20260505222534 54 0.0 0.0 0.00 0.00 0.00 95 1013.6
20260505214533 54 0.0 0.0 0.00 0.00 0.00 97 1013.9
20260505212533 55 0.0 0.0 0.00 0.00 0.00 91 1014.3
20260505210532 54 0.0 0.0 0.00 0.00 0.00 97 1014.4
20260505204532 53 0.0 0.0 0.00 0.00 0.00 99 1014.5
20260505202532 54 0.0 0.0 0.00 0.00 0.00 97 1014.6
20260505200532 53 0.0 0.0 0.00 0.00 0.00 99 1014.6
20260505194531 54 0.0 0.0 0.00 0.00 0.00 99 1014.5
20260505192531 55 0.0 0.0 0.00 0.00 0.00 94 1014.4
20260505190531 53 0.0 0.0 0.00 0.00 0.00 99 1014.3
20260505184530 56 0.0 0.0 0.00 0.00 0.00 86 1014.2
20260505182530 55 0.0 0.0 0.00 0.00 0.00 87 1014.1
20260505180530 55 0.0 0.0 0.00 0.00 0.00 87 1014.0
20260505174529 55 0.0 0.0 0.00 0.00 0.00 93 1013.9
20260505172529 54 0.0 0.0 0.00 0.00 0.00 99 1013.9
20260505170529 55 0.0 0.0 0.00 0.00 0.00 90 1013.9
20260505164529 56 0.0 0.0 0.00 0.00 0.00 87 1014.0
20260505162528 55 0.0 0.0 0.00 0.00 0.00 99 1014.2
20260505160528 57 0.0 0.0 0.00 0.00 0.00 87 1014.1
20260505152527 57 0.0 0.0 0.00 0.00 0.00 81 1014.2
20260505150527 57 0.0 0.0 0.00 0.00 0.00 80 1014.2
20260505140526 57 0.0 0.0 0.00 0.00 0.00 80 1014.2
20260505124525 58 0.0 0.0 0.00 0.00 0.00 75 1014.6
20260505122525 57 0.0 0.0 0.00 0.00 0.00 79 1014.6
20260505120524 55 0.0 0.0 0.00 0.00 0.00 90 1014.5
20260505114524 56 0.0 0.0 0.00 0.00 0.00 91 1014.5
20260505112523 56 0.0 0.0 0.00 0.00 0.00 94 1014.6
20260505110523 56 0.0 0.0 0.00 0.00 0.00 95 1014.5
20260505100522 55 0.0 0.0 0.00 0.00 0.00 87 1014.8
20260505094522 55 0.0 0.0 0.00 0.00 0.00 87 1015.0
20260505092522 55 0.0 0.0 0.00 0.00 0.00 79 1015.1
20260505090521 57 0.0 0.0 0.00 0.00 0.00 64 1015.2
20260505084521 55 0.0 0.0 0.00 0.00 0.00 80 1015.2
20260505082521 55 0.0 0.0 0.00 0.00 0.00 68 1015.0
20260505080520 56 0.0 0.0 0.00 0.00 0.00 70 1014.8
20260505074520 57 0.0 0.0 0.00 0.00 0.00 62 1014.8
20260505072520 57 0.0 0.0 0.00 0.00 0.00 63 1014.4
20260505070519 57 0.0 0.0 0.00 0.00 0.00 58 1014.2
20260505064519 58 0.0 0.0 0.00 0.00 0.00 51 1014.1
20260505062519 57 0.0 0.0 0.00 0.00 0.00 51 1014.2
20260505060518 56 0.0 0.0 0.00 0.00 0.00 56 1014.2
20260505054518 55 0.0 0.0 0.00 0.00 0.00 58 1014.3
20260505052518 57 0.0 0.0 0.00 0.00 0.00 50 1013.8
20260505050517 58 0.0 0.0 0.00 0.00 0.00 52 1013.8
20260505040517 58 0.0 0.0 0.00 0.00 0.00 47 1014.0
20260505034516 58 0.0 0.0 0.00 0.00 0.00 48 1013.9
20260505032516 57 0.0 0.0 0.00 0.00 0.00 50 1013.7
20260505030516 57 0.0 0.0 0.00 0.00 0.00 49 1014.7